• MPC Preparation (Info)

  • MPEC 2022-O100 : 2022 OA3

    The following Minor Planet Electronic Circular may be linked-to from your own Web pages, but must not otherwise be redistributed electronically.

    A form allowing access to any MPEC is at the bottom of this page.


    Read MPEC 2022-O99 Read MPEC 2022-O101


    M.P.E.C. 2022-O100                                Issued 2022 July 29, 23:24 UT
    
         The Minor Planet Electronic Circulars contain information on unusual
             minor planets and routine data on comets.  They are published
        on behalf of Division F of the International Astronomical Union by the
              Minor Planet Center, Smithsonian Astrophysical Observatory,
                              Cambridge, MA 02138, U.S.A.
    
                 Prepared using the Tamkin Foundation Computer Network
    
                                  MPC@CFA.HARVARD.EDU
                URL https://www.minorplanetcenter.net/    ISSN 1523-6714
    
                                    2022 OA3                                 
    
    
    Observations:
         K22O03A  C2022 07 23.43738920 44 42.524-07 17 15.42         21.38GVEO100F52
         K22O03A  C2022 07 23.44893920 44 46.543-07 17 53.78         21.54GVEO100F52
         K22O03A* C2022 07 26.40691321 04 30.350-10 12 06.85         21.45wUEO100F52
         K22O03A  C2022 07 26.41900921 04 35.102-10 12 52.23         21.38wUEO100F52
         K22O03A  C2022 07 26.43113821 04 39.874-10 13 37.73         21.58wUEO100F52
         K22O03A  C2022 07 26.52864121 05 18.336-10 19 42.08               VEO100F52
         K22O03A  C2022 07 26.52901121 05 18.477-10 19 43.12         21.23GVEO100F52
         K22O03A ^C2022 07 27.38378721 11 32.049-11 13 43.74         21.23GVEO100568
         K22O03A ^C2022 07 27.38477221 11 32.452-11 13 47.53         21.20GVEO100568
         K22O03A ^C2022 07 27.38575421 11 32.860-11 13 51.38         21.25GVEO100568
         K22O03A ^C2022 07 27.38674421 11 33.261-11 13 55.19         21.22GVEO100568
    
    Observer details:
    568 Mauna Kea.  Observers R. Wainscoat, A. Acohido, T. Burdullis.  Measurers
        R. Weryk, R. Wainscoat.  3.6-m Canada-France-Hawaii Telescope + CCD.
    F52 Pan-STARRS 2, Haleakala.  Observers J. Bulger, K. Chambers, T. Dukes, T.
        Lowe, A. Schultz, I. Smith.  Measurers S. Chastel, J. Fairlamb, M. Huber,
        Y. Ramanjooloo, R. Wainscoat, R. Weryk, K. Chambers, T. de Boer, H. Gao,
        C.-C. Lin, E. Magnier.  1.8-m Ritchey-Chretien + CCD.
    
    Orbital elements:
    2022 OA3                                                 Earth MOID = 0.1000 AU
    Epoch 2022 Aug. 9.0 TT = JDT 2459800.5                  Bell                    
    M 358.81154              (2000.0)            P               Q                  
    n   0.32335268     Peri.  193.56777     +0.78325616     +0.60869166             
    a   2.1022534      Node   128.21409     -0.55431892     +0.77589098             
    e   0.4722192      Incl.    9.26564     -0.28149659     +0.16579401             
    P   3.05           H   25.25          G   0.15           U   9                  
    Residuals in seconds of arc
    220723 F52  0.0   0.0     220726 F52  0.2-  0.1+    220727 568  0.0   0.0
    220723 F52  0.0   0.0     220726 F52  0.3+  0.3-    220727 568  0.0   0.0
    220726 F52  0.2+  0.0     220726 F52  0.2+  0.0     220727 568  0.0   0.0
    220726 F52  0.1-  0.1+    220727 568  0.0   0.0
    
    Ephemeris:
    2022 OA3                 a,e,i = 2.10, 0.47, 9                   q = 1.1095
    Date    TT    R. A. (2000) Decl.     Delta      r    Elong.  Phase     V
    2022 06 29    19 12 43.6 +03 41 01   0.2201  1.2140   151.1    23.8    23.5
    ...
    2022 07 14    19 56 32.0 -00 31 18   0.1508  1.1577   157.9    19.3    22.4
    ...
    2022 07 22    20 35 57.5 -05 59 48   0.1241  1.1357   163.7    14.6    21.8
    ...
    2022 07 28    21 16 02.3 -11 52 46   0.1106  1.1233   166.3    12.3    21.5
    2022 07 29    21 23 37.8 -12 58 28   0.1091  1.1216   166.2    12.5    21.4
    2022 07 30    21 31 27.8 -14 05 21   0.1077  1.1201   165.9    12.8    21.4
    ...
    2022 08 05    22 22 26.0 -20 47 43   0.1041  1.1129   159.9    18.2    21.5
    ...
    2022 08 13    23 32 21.2 -27 53 41   0.1110  1.1095   148.7    28.4    22.0
    ...
    2022 08 28    01 05 01.7 -33 00 26   0.1483  1.1227   136.6    38.2    22.9
    
    M. P. C. Staff               (C) Copyright 2022 MPC           M.P.E.C. 2022-O100
    


    Read MPEC 2022-O99 Read MPEC 2022-O101


    MPEC number:

    Enter an MPEC number in one of the following forms:

    • 1997-B01 (the full form)
    • J97B01 (the packed version of the full form)
    • B01 (the abbreviated form)